UAE9844 OMDW-VHHH

Flight info

Callsign UAE9844
Flight time N/A
Altitude 31000
Route NOLSU M572 GOMTA M428 MUNGA A777 VAXIM L301 RASKI L639 ISLIL/N0505F330 L639 BPL A791 CEA B465 CTG A599 CHILA/N0499F350 A599 LINSO/K0922S1070 A599 POU R473 SIERA
Aircraft B744/H-SDE3FGHIM1M2RWXY/LB1

Departure

Time 2026-05-06 11:38
Airport Al Maktoum International Airport (OMDW)

Arrival

Time N/A
Airport Hong Kong International Airport (VHHH)
Time Latitude Longitude Altitude Speed Heading
2026-05-06 11:20 24.89321 55.14746 192 ft 0 kts 120°
2026-05-06 11:28 24.89327 55.14736 192 ft 2 kts 120°
2026-05-06 11:28 24.89329 55.14731 192 ft 1 kts 120°
2026-05-06 11:28 24.89335 55.14720 192 ft 2 kts 121°
2026-05-06 11:29 24.89334 55.14721 192 ft 2 kts 122°
2026-05-06 11:29 24.89343 55.14706 192 ft 3 kts 128°
2026-05-06 11:29 24.89347 55.14701 191 ft 13 kts 130°
2026-05-06 11:29 24.89368 55.14673 191 ft 0 kts 25°
2026-05-06 11:30 24.89381 55.14645 191 ft 0 kts 27°
2026-05-06 11:32 24.89451 55.14690 192 ft 24 kts 30°
2026-05-06 11:32 24.89644 55.14811 192 ft 33 kts 32°
2026-05-06 11:33 24.89834 55.14936 192 ft 30 kts 30°
2026-05-06 11:33 24.89888 55.15117 192 ft 31 kts 127°
2026-05-06 11:33 24.89782 55.15308 192 ft 29 kts 121°
2026-05-06 11:33 24.89670 55.15514 192 ft 30 kts 120°
2026-05-06 11:34 24.89571 55.15708 192 ft 27 kts 121°
2026-05-06 11:34 24.89471 55.15873 192 ft 25 kts 124°
2026-05-06 11:34 24.89372 55.16038 192 ft 22 kts 123°
2026-05-06 11:34 24.89286 55.16180 192 ft 26 kts 123°
2026-05-06 11:35 24.89161 55.16404 192 ft 36 kts 120°
2026-05-06 11:35 24.89041 55.16630 192 ft 33 kts 120°
2026-05-06 11:35 24.88929 55.16835 192 ft 30 kts 122°
2026-05-06 11:35 24.88825 55.17022 192 ft 30 kts 121°
2026-05-06 11:36 24.88717 55.17224 192 ft 29 kts 121°
2026-05-06 11:36 24.88637 55.17377 192 ft 18 kts 105°
2026-05-06 11:36 24.88701 55.17472 192 ft 17 kts 22°
2026-05-06 11:36 24.88803 55.17530 192 ft 18 kts 30°
2026-05-06 11:37 24.88899 55.17494 192 ft 17 kts 297°
2026-05-06 11:37 24.88994 55.17312 192 ft 48 kts 302°
2026-05-06 11:37 24.89298 55.16761 192 ft 119 kts 301°
2026-05-06 11:37 24.89810 55.15828 423 ft 153 kts 302°
2026-05-06 11:38 24.90340 55.14827 1262 ft 149 kts 303°
2026-05-06 11:38 24.90895 55.13824 1986 ft 157 kts 303°
2026-05-06 11:38 24.91477 55.12785 2229 ft 164 kts 302°
2026-05-06 11:38 24.92100 55.11670 2398 ft 177 kts 301°
2026-05-06 11:39 24.92758 55.10487 2550 ft 191 kts 301°
2026-05-06 11:39 24.93483 55.09183 2675 ft 208 kts 300°
2026-05-06 11:39 24.94267 55.07772 2801 ft 226 kts 300°
2026-05-06 11:39 24.95123 55.06228 2928 ft 246 kts 300°
2026-05-06 11:40 24.95732 55.04397 2973 ft 269 kts 276°
2026-05-06 11:40 24.95489 55.02305 3177 ft 286 kts 250°
2026-05-06 11:40 24.94393 55.00405 3375 ft 307 kts 226°
2026-05-06 11:40 24.92574 54.99082 3780 ft 320 kts 202°
2026-05-06 11:41 24.90371 54.98651 4455 ft 325 kts 179°
2026-05-06 11:41 24.88153 54.99181 5158 ft 331 kts 157°
2026-05-06 11:41 24.86263 55.00608 5955 ft 333 kts 135°
2026-05-06 11:41 24.84972 55.02725 6744 ft 337 kts 114°
2026-05-06 11:42 24.84465 55.05256 7484 ft 342 kts 93°
2026-05-06 11:42 24.84664 55.07867 8355 ft 340 kts 79°
2026-05-06 11:42 24.85198 55.10339 9599 ft 325 kts 77°
2026-05-06 11:42 24.85552 55.11928 10440 ft 317 kts 76°
2026-05-06 11:43 24.86280 55.15061 11484 ft 326 kts 76°
2026-05-06 11:43 24.86666 55.16717 11658 ft 341 kts 76°
2026-05-06 11:43 24.87280 55.19356 11871 ft 365 kts 76°
2026-05-06 11:44 24.88578 55.24942 13317 ft 382 kts 76°
2026-05-06 11:44 24.89229 55.27748 14175 ft 387 kts 76°
2026-05-06 11:44 24.89900 55.30644 15046 ft 394 kts 76°
2026-05-06 11:44 24.90579 55.33578 16003 ft 398 kts 76°
2026-05-06 11:45 24.91268 55.36560 16871 ft 405 kts 76°
2026-05-06 11:45 24.91969 55.39595 17719 ft 411 kts 76°
2026-05-06 11:45 24.92678 55.42672 18551 ft 417 kts 76°
2026-05-06 11:45 24.93397 55.45793 19306 ft 424 kts 76°
2026-05-06 11:46 24.94128 55.48968 20049 ft 430 kts 76°
2026-05-06 11:46 24.94867 55.52183 20790 ft 436 kts 76°
2026-05-06 11:46 24.95622 55.55470 21491 ft 443 kts 76°
2026-05-06 11:46 24.96379 55.58769 22169 ft 449 kts 76°
2026-05-06 11:47 24.97152 55.62140 22848 ft 455 kts 76°
2026-05-06 11:47 24.97933 55.65551 23492 ft 461 kts 76°
2026-05-06 11:47 24.98723 55.69008 24108 ft 468 kts 76°
2026-05-06 11:47 24.99520 55.72499 24490 ft 471 kts 76°
2026-05-06 11:48 25.00324 55.76020 24699 ft 474 kts 76°
2026-05-06 11:48 25.01127 55.79547 24751 ft 475 kts 76°
2026-05-06 11:48 25.01936 55.83101 25130 ft 480 kts 76°
2026-05-06 11:48 25.02751 55.86687 25713 ft 485 kts 76°
2026-05-06 11:49 25.03578 55.90327 26254 ft 491 kts 76°
2026-05-06 11:49 25.04413 55.94007 26736 ft 497 kts 76°
2026-05-06 11:49 25.05256 55.97731 27190 ft 504 kts 76°
2026-05-06 11:49 25.06106 56.01488 27746 ft 507 kts 75°
2026-05-06 11:50 25.06966 56.05296 28192 ft 513 kts 75°
2026-05-06 11:50 25.07826 56.09105 28657 ft 518 kts 75°
2026-05-06 11:50 25.08701 56.12986 29090 ft 522 kts 75°
2026-05-06 11:50 25.09584 56.16910 29497 ft 527 kts 75°
2026-05-06 11:51 25.10468 56.20841 29894 ft 531 kts 75°
2026-05-06 11:51 25.11370 56.24816 30290 ft 535 kts 75°
2026-05-06 11:51 25.12286 56.28809 30650 ft 539 kts 75°
2026-05-06 11:51 25.13196 56.32844 31010 ft 542 kts 75°
2026-05-06 11:52 25.14092 56.36854 31373 ft 545 kts 75°
2026-05-06 11:52 25.15020 56.41019 31701 ft 548 kts 75°
2026-05-06 11:52 25.15930 56.45113 32041 ft 550 kts 75°
2026-05-06 11:52 25.16841 56.49208 32518 ft 549 kts 75°
2026-05-06 11:53 25.17658 56.53324 32899 ft 550 kts 82°
2026-05-06 11:53 25.17715 56.57544 33265 ft 550 kts 96°
2026-05-06 11:53 25.17022 56.61678 33687 ft 547 kts 104°
2026-05-06 11:53 25.15959 56.65697 34104 ft 545 kts 110°
2026-05-06 11:54 25.14625 56.69618 34478 ft 544 kts 114°
2026-05-06 11:54 25.13141 56.73465 34876 ft 543 kts 115°
2026-05-06 11:54 25.11614 56.77270 35245 ft 542 kts 116°
2026-05-06 11:54 25.10112 56.81081 35652 ft 541 kts 115°
2026-05-06 11:55 25.08634 56.84898 36001 ft 540 kts 115°
2026-05-06 11:55 25.07163 56.88727 36345 ft 540 kts 115°
2026-05-06 11:55 25.05711 56.92523 36733 ft 538 kts 115°
2026-05-06 11:55 25.04276 56.96333 37042 ft 538 kts 114°
2026-05-06 11:56 25.02839 57.00143 37379 ft 536 kts 115°
2026-05-06 11:56 25.01418 57.03896 37669 ft 536 kts 115°
2026-05-06 11:56 24.99992 57.07650 37936 ft 536 kts 115°
2026-05-06 11:56 24.98709 57.11022 38150 ft 536 kts 115°
2026-05-06 11:57 24.97263 57.14816 38444 ft 534 kts 115°
2026-05-06 11:57 24.95845 57.18533 38718 ft 533 kts 115°
2026-05-06 11:57 24.92945 57.26123 38768 ft 532 kts 115°
2026-05-06 11:58 24.90062 57.33652 38770 ft 533 kts 115°
2026-05-06 11:58 24.87193 57.41134 38769 ft 533 kts 115°
2026-05-06 11:59 24.84310 57.48682 38769 ft 532 kts 115°
2026-05-06 11:59 24.81423 57.56194 38770 ft 534 kts 115°
2026-05-06 12:00 24.78507 57.63736 38769 ft 536 kts 115°
2026-05-06 12:00 24.75589 57.71272 38769 ft 534 kts 115°
2026-05-06 12:01 24.72715 57.78809 38769 ft 534 kts 112°
2026-05-06 12:01 24.70265 57.86524 38768 ft 535 kts 110°
2026-05-06 12:02 24.67885 57.94274 38768 ft 535 kts 110°
2026-05-06 12:02 24.65466 58.02004 38767 ft 535 kts 110°
2026-05-06 12:03 24.63035 58.09729 38768 ft 534 kts 110°
2026-05-06 12:03 24.60618 58.17459 38767 ft 534 kts 110°
2026-05-06 12:04 24.58197 58.25191 38767 ft 535 kts 110°
2026-05-06 12:04 24.55760 58.32918 38770 ft 534 kts 110°
2026-05-06 12:05 24.53321 58.40629 38769 ft 534 kts 110°
2026-05-06 12:05 24.50894 58.48348 38769 ft 534 kts 110°
2026-05-06 12:06 24.48445 58.56051 38768 ft 534 kts 111°
2026-05-06 12:06 24.45981 58.63762 38764 ft 535 kts 111°
2026-05-06 12:07 24.43536 58.71407 38764 ft 535 kts 111°
2026-05-06 12:07 24.40825 58.79006 38765 ft 534 kts 116°
2026-05-06 12:08 24.37546 58.86309 38764 ft 533 kts 118°
2026-05-06 12:08 24.34237 58.93601 38764 ft 533 kts 118°
2026-05-06 12:09 24.30966 59.00897 38764 ft 532 kts 118°
2026-05-06 12:09 24.27700 59.08200 38763 ft 532 kts 118°
2026-05-06 12:10 24.24455 59.15515 38763 ft 533 kts 117°
2026-05-06 12:10 24.21220 59.22810 38763 ft 532 kts 117°
2026-05-06 12:11 24.17962 59.30088 38764 ft 532 kts 117°
2026-05-06 12:11 24.14694 59.37354 38764 ft 532 kts 118°
2026-05-06 12:12 24.11974 59.43395 38764 ft 531 kts 118°
2026-05-06 12:12 24.08709 59.50646 38765 ft 531 kts 117°
2026-05-06 12:13 24.05434 59.57877 38765 ft 530 kts 118°
2026-05-06 12:13 24.02129 59.65157 38765 ft 530 kts 118°
2026-05-06 12:14 23.98847 59.72375 38767 ft 530 kts 118°
2026-05-06 12:14 23.95587 59.79534 38767 ft 529 kts 118°
2026-05-06 12:15 23.92321 59.86739 38767 ft 529 kts 117°
2026-05-06 12:15 23.89059 59.93952 38768 ft 529 kts 118°
2026-05-06 12:16 23.85785 60.01151 38768 ft 529 kts 118°
2026-05-06 12:16 23.82503 60.08345 38769 ft 529 kts 118°
2026-05-06 12:17 23.79215 60.15540 38769 ft 529 kts 118°
2026-05-06 12:17 23.75923 60.22729 38770 ft 529 kts 118°
2026-05-06 12:18 23.72606 60.29964 38770 ft 528 kts 118°
2026-05-06 12:18 23.69318 60.37125 38771 ft 528 kts 118°
2026-05-06 12:19 23.66019 60.44298 38771 ft 529 kts 118°
2026-05-06 12:19 23.62722 60.51457 38772 ft 527 kts 118°
2026-05-06 12:20 23.59435 60.58582 38772 ft 525 kts 118°
2026-05-06 12:20 23.56144 60.65706 38777 ft 525 kts 118°
2026-05-06 12:21 23.52855 60.72814 38787 ft 525 kts 118°
2026-05-06 12:21 23.49565 60.79915 38794 ft 525 kts 118°
2026-05-06 12:22 23.46274 60.87010 38795 ft 525 kts 118°
2026-05-06 12:22 23.42992 60.94117 38768 ft 524 kts 118°
2026-05-06 12:23 23.39690 61.01200 38768 ft 524 kts 118°
2026-05-06 12:23 23.36387 61.08273 38769 ft 524 kts 118°
2026-05-06 12:24 23.33104 61.15360 38760 ft 524 kts 114°
2026-05-06 12:24 23.31315 61.23024 38770 ft 526 kts 99°
2026-05-06 12:25 23.30460 61.30933 38770 ft 526 kts 95°
2026-05-06 12:25 23.29808 61.38934 38770 ft 526 kts 95°
2026-05-06 12:26 23.29116 61.46846 38770 ft 526 kts 95°
2026-05-06 12:26 23.28399 61.54790 38771 ft 526 kts 96°
2026-05-06 12:27 23.27711 61.62709 38771 ft 526 kts 95°
2026-05-06 12:27 23.27003 61.70644 38771 ft 526 kts 95°
2026-05-06 12:28 23.26283 61.78571 38771 ft 526 kts 95°
2026-05-06 12:28 23.25554 61.86504 38772 ft 526 kts 96°
2026-05-06 12:29 23.24823 61.94422 38773 ft 526 kts 96°
2026-05-06 12:29 23.24086 62.02345 38772 ft 526 kts 96°
2026-05-06 12:30 23.23348 62.10233 38773 ft 527 kts 96°
2026-05-06 12:30 23.22602 62.18170 38773 ft 527 kts 96°
2026-05-06 12:31 23.21852 62.26103 38774 ft 527 kts 96°
2026-05-06 12:31 23.21100 62.34012 38774 ft 527 kts 96°
2026-05-06 12:32 23.20341 62.41955 38774 ft 527 kts 96°
2026-05-06 12:32 23.19580 62.49878 38774 ft 527 kts 96°
2026-05-06 12:33 23.18815 62.57803 38774 ft 527 kts 96°
2026-05-06 12:33 23.18044 62.65741 38775 ft 527 kts 96°
2026-05-06 12:34 23.17270 62.73678 38775 ft 527 kts 96°
2026-05-06 12:34 23.16493 62.81594 38793 ft 527 kts 96°
2026-05-06 12:35 23.15711 62.89525 38796 ft 527 kts 96°
2026-05-06 12:35 23.14926 62.97438 38795 ft 527 kts 96°
2026-05-06 12:36 23.14137 63.05363 38794 ft 527 kts 96°
2026-05-06 12:36 23.13344 63.13279 38794 ft 527 kts 96°
2026-05-06 12:37 23.12547 63.21191 38794 ft 527 kts 96°
2026-05-06 12:37 23.11746 63.29107 38794 ft 527 kts 96°
2026-05-06 12:38 23.10941 63.37027 38794 ft 527 kts 96°
2026-05-06 12:38 23.10131 63.44952 38793 ft 528 kts 96°
2026-05-06 12:39 23.09321 63.52880 38792 ft 528 kts 96°
2026-05-06 12:39 23.08520 63.60807 38792 ft 528 kts 96°
2026-05-06 12:40 23.07690 63.68745 38792 ft 528 kts 96°
2026-05-06 12:40 23.06856 63.76671 38792 ft 528 kts 96°
2026-05-06 12:41 23.06023 63.84583 38792 ft 528 kts 96°
2026-05-06 12:41 23.05208 63.92514 38791 ft 528 kts 96°
2026-05-06 12:42 23.04537 63.99107 38791 ft 528 kts 96°
2026-05-06 12:42 23.03724 64.07043 38791 ft 529 kts 96°
2026-05-06 12:43 23.02905 64.14987 38790 ft 530 kts 96°
2026-05-06 12:43 23.02083 64.22932 38788 ft 529 kts 96°
2026-05-06 12:44 23.01290 64.30858 38789 ft 528 kts 96°
2026-05-06 12:44 23.00478 64.38785 38789 ft 529 kts 96°
2026-05-06 12:45 22.99652 64.46739 38788 ft 530 kts 96°
2026-05-06 12:46 22.98427 64.58650 38788 ft 530 kts 96°
2026-05-06 12:46 22.97583 64.66596 38788 ft 529 kts 96°
2026-05-06 12:47 22.96734 64.74548 38788 ft 529 kts 96°
2026-05-06 12:47 22.95909 64.82492 38786 ft 529 kts 94°
2026-05-06 12:48 22.95721 64.90466 38788 ft 529 kts 88°
2026-05-06 12:48 22.95831 64.98454 38786 ft 529 kts 88°
2026-05-06 12:49 22.95897 65.06452 38786 ft 529 kts 88°
2026-05-06 12:49 22.95935 65.14429 38785 ft 529 kts 89°
2026-05-06 12:50 22.95972 65.22435 38785 ft 529 kts 88°
2026-05-06 12:50 22.96030 65.30440 38786 ft 530 kts 88°
2026-05-06 12:51 22.96066 65.38437 38785 ft 530 kts 88°
2026-05-06 12:51 22.96093 65.46444 38785 ft 530 kts 89°
2026-05-06 12:52 22.96113 65.54401 38785 ft 530 kts 89°
2026-05-06 12:52 22.96129 65.62406 38784 ft 530 kts 89°
2026-05-06 12:53 22.96141 65.70412 38785 ft 531 kts 89°
2026-05-06 12:53 22.96149 65.78433 38784 ft 531 kts 89°
2026-05-06 12:54 22.96153 65.86439 38784 ft 531 kts 89°
2026-05-06 12:54 22.96152 65.94457 38784 ft 531 kts 89°
2026-05-06 12:55 22.96148 66.02465 38783 ft 531 kts 89°
2026-05-06 12:55 22.96140 66.10504 38784 ft 533 kts 89°
2026-05-06 12:56 22.96127 66.18551 38784 ft 533 kts 89°
2026-05-06 12:56 22.96111 66.26591 38784 ft 533 kts 89°
2026-05-06 12:57 22.96090 66.34635 38784 ft 534 kts 89°
2026-05-06 12:57 22.96066 66.42695 38784 ft 534 kts 89°
2026-05-06 12:58 22.96037 66.50758 38784 ft 534 kts 89°
2026-05-06 12:58 22.96004 66.58813 38785 ft 534 kts 89°
2026-05-06 12:59 22.95986 66.66870 38784 ft 534 kts 89°
2026-05-06 12:59 22.95944 66.74938 38786 ft 535 kts 89°
2026-05-06 13:00 22.95891 66.83001 38786 ft 535 kts 89°
2026-05-06 13:00 22.95836 66.91097 38787 ft 535 kts 89°
2026-05-06 13:01 22.95792 66.99178 38787 ft 535 kts 88°
2026-05-06 13:01 22.95815 67.07267 38788 ft 536 kts 88°
2026-05-06 13:02 22.95825 67.15331 38782 ft 536 kts 88°
2026-05-06 13:02 22.95828 67.23501 38781 ft 536 kts 88°
2026-05-06 13:03 22.95828 67.31593 38782 ft 537 kts 88°
2026-05-06 13:03 22.95851 67.39706 38782 ft 537 kts 88°
2026-05-06 13:04 22.95860 67.47818 38783 ft 537 kts 88°
2026-05-06 13:04 22.95872 67.55930 38784 ft 537 kts 88°
2026-05-06 13:05 22.95867 67.63983 38786 ft 537 kts 89°
2026-05-06 13:05 22.95846 67.72091 38787 ft 537 kts 89°
2026-05-06 13:06 22.95821 67.80209 38788 ft 538 kts 89°
2026-05-06 13:06 22.95797 67.88342 38790 ft 538 kts 89°
2026-05-06 13:07 22.95805 67.96480 38791 ft 538 kts 88°
2026-05-06 13:07 22.95816 68.04605 38792 ft 539 kts 88°
2026-05-06 13:08 22.95837 68.12743 38793 ft 540 kts 88°
2026-05-06 13:08 22.95829 68.20908 38795 ft 540 kts 88°
2026-05-06 13:09 22.95816 68.29011 38797 ft 540 kts 89°
2026-05-06 13:09 22.95801 68.37172 38798 ft 540 kts 89°
2026-05-06 13:10 22.95453 68.45320 38800 ft 541 kts 93°
2026-05-06 13:10 22.94912 68.53461 38801 ft 541 kts 92°
2026-05-06 13:11 22.94407 68.61616 38803 ft 541 kts 92°
2026-05-06 13:11 22.93912 68.69775 38804 ft 541 kts 92°
2026-05-06 13:12 22.93432 68.77926 38806 ft 541 kts 92°
2026-05-06 13:12 22.92964 68.86087 38807 ft 541 kts 92°
2026-05-06 13:13 22.92480 68.94198 38809 ft 541 kts 92°
2026-05-06 13:13 22.91986 69.02345 38810 ft 541 kts 92°
2026-05-06 13:14 22.91483 69.10549 38811 ft 541 kts 92°
2026-05-06 13:14 22.90983 69.18642 38812 ft 542 kts 92°
2026-05-06 13:15 22.90474 69.26805 38812 ft 542 kts 92°
2026-05-06 13:15 22.89958 69.35029 38813 ft 542 kts 92°
2026-05-06 13:16 22.89463 69.43149 38813 ft 542 kts 93°
2026-05-06 13:16 22.88936 69.51326 38813 ft 542 kts 93°
2026-05-06 13:17 22.88489 69.58158 38814 ft 542 kts 93°
2026-05-06 13:17 22.87957 69.66276 38813 ft 542 kts 93°
2026-05-06 13:18 22.87445 69.74420 38809 ft 541 kts 92°
2026-05-06 13:18 22.86972 69.82564 38808 ft 541 kts 92°
2026-05-06 13:19 22.86488 69.90708 38807 ft 541 kts 92°
2026-05-06 13:19 22.85998 69.98853 38806 ft 541 kts 92°
2026-05-06 13:20 22.85503 70.07017 38804 ft 542 kts 92°
2026-05-06 13:20 22.85038 70.15192 38802 ft 543 kts 92°
2026-05-06 13:21 22.84552 70.23356 38800 ft 543 kts 92°
2026-05-06 13:21 22.84055 70.31530 38787 ft 544 kts 93°
2026-05-06 13:22 22.83552 70.39721 38782 ft 544 kts 93°
2026-05-06 13:22 22.83044 70.47906 38778 ft 544 kts 93°
2026-05-06 13:23 22.82552 70.56088 38775 ft 544 kts 93°
2026-05-06 13:23 22.82031 70.64260 38771 ft 544 kts 93°
2026-05-06 13:24 22.81503 70.72446 38766 ft 544 kts 93°
2026-05-06 13:24 22.80984 70.80633 38760 ft 545 kts 91°
2026-05-06 13:25 22.81510 70.88805 38759 ft 543 kts 81°
2026-05-06 13:25 22.82732 70.96835 38754 ft 542 kts 78°
2026-05-06 13:26 22.84006 71.04933 38750 ft 542 kts 78°
2026-05-06 13:26 22.85220 71.12995 38746 ft 543 kts 79°
2026-05-06 13:27 22.86425 71.21093 38742 ft 543 kts 78°
2026-05-06 13:27 22.87653 71.29164 38738 ft 543 kts 79°
2026-05-06 13:28 22.88850 71.37192 38735 ft 543 kts 79°
2026-05-06 13:28 22.90056 71.45353 38732 ft 544 kts 79°
2026-05-06 13:29 22.91240 71.53413 38728 ft 544 kts 79°
2026-05-06 13:29 22.92428 71.61527 38719 ft 544 kts 79°
2026-05-06 13:30 22.93611 71.69640 38716 ft 544 kts 79°
2026-05-06 13:30 22.94791 71.77759 38714 ft 544 kts 79°
2026-05-06 13:31 22.95974 71.85933 38712 ft 545 kts 79°
2026-05-06 13:31 22.97143 71.94041 38710 ft 545 kts 79°
2026-05-06 13:32 22.98310 72.02159 38707 ft 545 kts 79°
2026-05-06 13:32 22.99479 72.10327 38706 ft 548 kts 79°
2026-05-06 13:33 23.00640 72.18470 38703 ft 548 kts 79°
2026-05-06 13:33 23.01807 72.26681 38701 ft 548 kts 79°
2026-05-06 13:34 23.02982 72.34850 38700 ft 548 kts 79°
2026-05-06 13:34 23.04134 72.43040 38700 ft 548 kts 79°
2026-05-06 13:35 23.05277 72.51241 38699 ft 549 kts 79°
2026-05-06 13:35 23.06411 72.59385 38699 ft 549 kts 79°
2026-05-06 13:36 23.07275 72.67686 38699 ft 550 kts 84°
2026-05-06 13:36 23.07683 72.75981 38699 ft 550 kts 85°
2026-05-06 13:37 23.08092 72.84232 38700 ft 551 kts 85°
2026-05-06 13:37 23.08528 72.92543 38701 ft 551 kts 85°
2026-05-06 13:38 23.08970 73.00860 38702 ft 551 kts 85°
2026-05-06 13:38 23.09448 73.09175 38704 ft 552 kts 85°
2026-05-06 13:39 23.09902 73.17495 38705 ft 552 kts 85°
2026-05-06 13:39 23.10347 73.25822 38716 ft 551 kts 85°
2026-05-06 13:40 23.10786 73.34145 38723 ft 552 kts 85°
2026-05-06 13:40 23.11219 73.42470 38730 ft 552 kts 85°
2026-05-06 13:41 23.11644 73.50724 38756 ft 552 kts 85°
2026-05-06 13:41 23.12074 73.59153 38760 ft 553 kts 85°
2026-05-06 13:42 23.12495 73.67492 38763 ft 553 kts 85°
2026-05-06 13:42 23.12912 73.75837 38766 ft 553 kts 85°
2026-05-06 13:43 23.13324 73.84182 38769 ft 553 kts 85°
2026-05-06 13:43 23.13732 73.92522 38774 ft 553 kts 85°
2026-05-06 13:44 23.14143 74.00869 38779 ft 554 kts 85°
2026-05-06 13:44 23.14557 74.09243 38783 ft 554 kts 85°
2026-05-06 13:45 23.14942 74.17558 38787 ft 554 kts 85°
2026-05-06 13:45 23.15517 74.30102 38792 ft 554 kts 85°
2026-05-06 13:46 23.15844 74.38462 38796 ft 554 kts 87°
2026-05-06 13:46 23.15980 74.46852 38800 ft 554 kts 88°
2026-05-06 13:47 23.16125 74.55211 38803 ft 555 kts 88°
2026-05-06 13:47 23.16276 74.63617 38807 ft 555 kts 88°
2026-05-06 13:48 23.16428 74.72013 38811 ft 555 kts 87°
2026-05-06 13:48 23.16614 74.80402 38814 ft 555 kts 88°
2026-05-06 13:49 23.16776 74.88776 38818 ft 554 kts 88°
2026-05-06 13:49 23.16928 74.97148 38821 ft 554 kts 88°
2026-05-06 13:50 23.17073 75.05470 38824 ft 554 kts 88°
2026-05-06 13:50 23.17213 75.13840 38827 ft 554 kts 88°
2026-05-06 13:51 23.17327 75.20851 38829 ft 554 kts 88°
2026-05-06 13:51 23.17459 75.29226 38832 ft 554 kts 88°
2026-05-06 13:52 23.17587 75.37601 38834 ft 554 kts 88°
2026-05-06 13:52 23.17709 75.45880 38836 ft 554 kts 88°
2026-05-06 13:53 23.17830 75.54365 38837 ft 555 kts 88°
2026-05-06 13:53 23.17944 75.62763 38838 ft 555 kts 88°
2026-05-06 13:54 23.18074 75.71144 38838 ft 555 kts 88°
2026-05-06 13:54 23.18176 75.79472 38839 ft 555 kts 88°
2026-05-06 13:55 23.18269 75.87864 38841 ft 555 kts 88°
2026-05-06 13:55 23.18360 75.96252 38841 ft 555 kts 88°
2026-05-06 13:56 23.18666 76.04634 38841 ft 555 kts 84°
2026-05-06 13:56 23.19365 76.13013 38839 ft 555 kts 83°
2026-05-06 13:57 23.20029 76.21323 38837 ft 555 kts 84°
2026-05-06 13:57 23.20668 76.29687 38835 ft 555 kts 84°
2026-05-06 13:58 23.21301 76.38069 38833 ft 555 kts 83°
2026-05-06 13:58 23.21961 76.46432 38831 ft 555 kts 84°
2026-05-06 13:59 23.22597 76.54808 38828 ft 555 kts 84°
2026-05-06 13:59 23.23223 76.63179 38826 ft 555 kts 84°
2026-05-06 14:00 23.23843 76.71554 38824 ft 556 kts 84°
2026-05-06 14:00 23.24459 76.79944 38822 ft 556 kts 84°
2026-05-06 14:01 23.25071 76.88334 38820 ft 556 kts 84°
2026-05-06 14:01 23.25679 76.96741 38818 ft 556 kts 84°
2026-05-06 14:02 23.26302 77.05141 38818 ft 557 kts 84°
2026-05-06 14:02 23.26897 77.13543 38817 ft 557 kts 84°
2026-05-06 14:03 23.27480 77.21894 38817 ft 557 kts 84°
2026-05-06 14:03 23.28069 77.30372 38817 ft 558 kts 84°
2026-05-06 14:04 23.28211 77.38873 38817 ft 559 kts 91°
2026-05-06 14:04 23.27802 77.47338 38817 ft 560 kts 92°
2026-05-06 14:05 23.27401 77.55759 38816 ft 561 kts 92°
2026-05-06 14:05 23.27026 77.64227 38816 ft 561 kts 92°
2026-05-06 14:06 23.26663 77.72717 38815 ft 561 kts 91°
2026-05-06 14:06 23.26327 77.81211 38816 ft 562 kts 92°
2026-05-06 14:07 23.25969 77.89694 38815 ft 562 kts 92°
2026-05-06 14:07 23.25600 77.98189 38814 ft 562 kts 92°
2026-05-06 14:08 23.25226 78.06679 38814 ft 562 kts 92°
2026-05-06 14:08 23.24847 78.15165 38813 ft 563 kts 92°
2026-05-06 14:09 23.24462 78.23679 38811 ft 563 kts 92°
2026-05-06 14:09 23.24073 78.32188 38810 ft 563 kts 92°
2026-05-06 14:10 23.23687 78.40688 38809 ft 563 kts 92°
2026-05-06 14:10 23.23302 78.49190 38808 ft 563 kts 92°
2026-05-06 14:11 23.22894 78.57632 38807 ft 563 kts 92°
2026-05-06 14:11 23.22479 78.66136 38806 ft 563 kts 92°
2026-05-06 14:12 23.22065 78.74639 38806 ft 563 kts 92°
2026-05-06 14:12 23.21908 78.83154 38805 ft 562 kts 89°
2026-05-06 14:13 23.21811 78.91632 38805 ft 562 kts 90°
2026-05-06 14:13 23.21677 79.00155 38805 ft 562 kts 90°
2026-05-06 14:14 23.21533 79.08668 38803 ft 563 kts 90°
2026-05-06 14:14 23.21410 79.17179 38804 ft 563 kts 90°
2026-05-06 14:15 23.21289 79.25705 38805 ft 563 kts 90°
2026-05-06 14:15 23.21142 79.34210 38807 ft 563 kts 90°
2026-05-06 14:16 23.20977 79.42724 38808 ft 564 kts 90°
2026-05-06 14:16 23.20809 79.51263 38810 ft 565 kts 90°
2026-05-06 14:17 23.20616 79.59800 38812 ft 565 kts 91°
2026-05-06 14:17 23.20228 79.68325 38814 ft 565 kts 92°
2026-05-06 14:18 23.19881 79.76806 38815 ft 565 kts 92°
2026-05-06 14:18 23.19518 79.85348 38816 ft 565 kts 92°
2026-05-06 14:19 23.19141 79.93900 38817 ft 566 kts 92°
2026-05-06 14:19 23.18762 80.02445 38817 ft 566 kts 92°
2026-05-06 14:20 23.18357 80.10990 38816 ft 566 kts 92°
2026-05-06 14:20 23.17910 80.19481 38816 ft 565 kts 92°
2026-05-06 14:21 23.17461 80.28005 38815 ft 565 kts 93°
2026-05-06 14:21 23.17008 80.36546 38814 ft 565 kts 93°
2026-05-06 14:22 23.16583 80.45070 38813 ft 565 kts 92°
2026-05-06 14:22 23.16146 80.53602 38812 ft 565 kts 93°
2026-05-06 14:23 23.15681 80.62124 38810 ft 564 kts 93°
2026-05-06 14:23 23.15212 80.70643 38808 ft 564 kts 93°
2026-05-06 14:24 23.14747 80.79097 38806 ft 564 kts 93°
2026-05-06 14:24 23.14275 80.87619 38804 ft 564 kts 93°
2026-05-06 14:25 23.13796 80.96114 38802 ft 563 kts 93°
2026-05-06 14:25 23.13313 81.04608 38800 ft 563 kts 93°
2026-05-06 14:26 23.12828 81.13073 38798 ft 564 kts 93°
2026-05-06 14:26 23.12449 81.20153 38796 ft 564 kts 93°
2026-05-06 14:27 23.11978 81.28630 38794 ft 564 kts 93°
2026-05-06 14:27 23.11488 81.37182 38793 ft 563 kts 93°
2026-05-06 14:28 23.10996 81.45668 38790 ft 563 kts 93°
2026-05-06 14:28 23.10493 81.54227 38789 ft 563 kts 93°
2026-05-06 14:29 23.09995 81.62646 38787 ft 563 kts 93°
2026-05-06 14:29 23.09480 81.71253 38786 ft 563 kts 94°
2026-05-06 14:30 23.08966 81.79773 38784 ft 563 kts 94°
2026-05-06 14:30 23.08472 81.88235 38783 ft 563 kts 94°
2026-05-06 14:31 23.07953 81.96628 38781 ft 563 kts 94°
2026-05-06 14:31 23.07409 82.05260 38780 ft 563 kts 94°
2026-05-06 14:32 23.06874 82.13740 38779 ft 562 kts 94°
2026-05-06 14:32 23.06412 82.22215 38778 ft 562 kts 92°
2026-05-06 14:33 23.06059 82.30750 38778 ft 562 kts 92°
2026-05-06 14:33 23.05684 82.39225 38777 ft 561 kts 93°
2026-05-06 14:34 23.05303 82.47590 38776 ft 561 kts 93°
2026-05-06 14:34 23.04918 82.56180 38776 ft 561 kts 92°
2026-05-06 14:35 23.04559 82.64635 38776 ft 561 kts 93°
2026-05-06 14:35 23.04178 82.73080 38776 ft 561 kts 93°
2026-05-06 14:36 23.03783 82.81615 38776 ft 561 kts 93°
2026-05-06 14:36 23.03386 82.90068 38792 ft 560 kts 93°
2026-05-06 14:37 23.02984 82.98515 38802 ft 560 kts 93°
2026-05-06 14:37 23.02577 83.06983 38804 ft 560 kts 93°
2026-05-06 14:38 23.02166 83.15434 38806 ft 560 kts 93°
2026-05-06 14:38 23.01751 83.23867 38808 ft 560 kts 93°
2026-05-06 14:39 23.01330 83.32333 38810 ft 560 kts 94°
2026-05-06 14:39 23.00907 83.40747 38825 ft 560 kts 94°
2026-05-06 14:40 23.00474 83.49275 38832 ft 560 kts 94°
2026-05-06 14:40 23.00039 83.57755 38835 ft 560 kts 94°
2026-05-06 14:41 22.99603 83.66165 38837 ft 558 kts 94°
2026-05-06 14:41 22.99161 83.74593 38839 ft 558 kts 94°
2026-05-06 14:42 22.98733 83.83022 38842 ft 559 kts 94°
2026-05-06 14:42 22.98283 83.91441 38845 ft 559 kts 94°
2026-05-06 14:43 22.97820 83.99869 38848 ft 559 kts 94°
2026-05-06 14:43 22.97359 84.08215 38851 ft 557 kts 94°
2026-05-06 14:44 22.96860 84.16671 38824 ft 556 kts 95°
2026-05-06 14:45 22.95925 84.29211 38825 ft 557 kts 95°
2026-05-06 14:45 22.95306 84.37599 38828 ft 556 kts 95°
2026-05-06 14:46 22.94687 84.45962 38830 ft 555 kts 95°
2026-05-06 14:46 22.94091 84.54272 38834 ft 556 kts 95°
2026-05-06 14:47 22.93489 84.62636 38837 ft 556 kts 95°
2026-05-06 14:47 22.92870 84.71002 38842 ft 555 kts 96°
2026-05-06 14:48 22.92248 84.79344 38847 ft 555 kts 95°
2026-05-06 14:48 22.91639 84.87686 38854 ft 554 kts 96°
2026-05-06 14:49 22.91108 84.94618 38848 ft 554 kts 96°
2026-05-06 14:49 22.90464 85.02949 38853 ft 554 kts 96°
2026-05-06 14:50 22.89814 85.11336 38858 ft 554 kts 96°
2026-05-06 14:50 22.89166 85.19661 38860 ft 553 kts 96°
2026-05-06 14:51 22.88507 85.28035 38862 ft 552 kts 96°
2026-05-06 14:51 22.87854 85.36267 38858 ft 553 kts 96°
2026-05-06 14:52 22.87187 85.44608 38851 ft 553 kts 96°
2026-05-06 14:52 22.86579 85.52196 38841 ft 553 kts 96°
2026-05-06 14:53 22.85943 85.60505 38828 ft 552 kts 96°
2026-05-06 14:53 22.85282 85.68844 38807 ft 551 kts 96°
2026-05-06 14:54 22.84619 85.77055 38786 ft 551 kts 96°
2026-05-06 14:54 22.83952 85.85415 38767 ft 552 kts 96°
2026-05-06 14:55 22.83281 85.93705 38750 ft 551 kts 96°